Location: Cheadle
(51.0146°N, 113.5417°W)
Time: 09:58:12
(UTC+00:00)

TIGRISAT - Pass Details

Date: 10 December 2023
Orbit: 596 x 675 km, 97.7° (Epoch: 21 February)

Event Time Altitude Azimuth Distance (km) Brightness Sun altitude
Exits shadow 01:56:30 - 2° (N) 2,614 ? -22.2°
Reaches altitude 10° 01:58:05 10° 353° (N) 2,041 ? -22.4°
Maximum altitude 02:01:45 26° 297° (WNW) 1,252 ? -23.0°
Drops below altitude 10° 02:05:19 10° 241° (WSW) 1,988 ? -23.5°
Sets 02:07:45 0° 229° (SW) 2,876 ? -23.9°
